User: anonymous   Login
Location: Unspecified
(48.8656°N, 0.0000°E)
Time: 08:03:59
(UTC+00:00)
Language:

Tiangong 2 - Orbit

View from above orbital plane
View from above orbital plane
View from above satellite
View from above satellite

Ground track
Ground track

The orbit data is extracted from the following two-line orbital elements,

1 41765U 16057A   19177.05869213  .00001986  00000-0  26694-4 0  9996
2 41765  42.7823 273.8457 0008806 319.4152  27.3711 15.61786765158427
Epoch (UTC): 26 June 2019 01:24:31
Eccentricity: 0.0008806
inclination: 42.7823°
perigee height: 376 km
apogee height: 388 km
right ascension of ascending node: 273.8457°
argument of perigee: 319.4152°
revolutions per day: 15.61786765
mean anomaly at epoch: 27.3711°
orbit number at epoch: 15842

The dashed part of the orbit path shows where the satellite is in the earth's shadow,  

DLR